Вернуться в каталог

COSMOS 2499 DEB

АктивенPO
NORAD 59373·DEBRIS·🇷🇺 Russia

Запущен May 23, 2014 с Plesetsk Cosmodrome

Loading…

Ближайшие Пролёты (ближайшие 24 часа)

TLE

УстаревшееSource: Space-Track

Эпоха: Aug 31, 2026, 03:21 UTC

1 59373U 14028BT  26243.13964651  .00006243  00000-0  14216-1 0  9994
2 59373  82.5068 175.2392 0289026  33.7505 328.1647 13.11684805157435

Отслеживайте COSMOS 2499 DEB в реальном времени с AllMySat

Download on the App Store